Location: Gombori
(14.9797°N, 2.9419°W)
Time: 23:43:05
(UTC+00:00)

Cosmos-2242 - Pass Details

Date: 29 July 2021
Orbit: 590 x 616 km, 82.5° (Epoch: 20 September)

Event Time Altitude Azimuth Distance (km) Brightness Sun altitude
Rises 19:19:25 0° 6° (N) 2,819 6.7 -9.2°
Reaches altitude 10° 19:21:43 10° 13° (NNE) 1,916 5.7 -9.7°
Maximum altitude 19:25:42 41° 84° (E) 856 3.4 -10.6°
Drops below altitude 10° 19:29:41 10° 155° (SSE) 1,911 5.1 -11.5°
Enters shadow 19:30:18 - 158° (SSE) 2,145 5.4 -11.6°
